datetime,inflow
1974-10-08,34.32
1974-10-09,34.32
1974-10-10,34.32
1974-10-11,34.32
1974-10-12,34.32
1974-10-13,34.32
1974-10-14,34.32
1974-10-15,34.32
1974-10-16,34.32
1974-10-17,34.32
1974-10-18,34.32
1974-10-19,34.32
1974-10-20,34.32
1974-10-21,37.9
1974-10-22,37.9
1974-10-23,37.9
1974-10-24,37.9
1974-10-25,37.9
1974-10-26,37.9
1974-10-27,37.9
1974-10-28,37.9
1974-10-29,37.9
1974-10-30,37.9
1974-10-31,37.9
1974-11-01,37.94
1974-11-02,37.94
1974-11-03,37.94
1974-11-04,37.94
1974-11-05,34.71
1974-11-06,34.71
1974-11-07,34.71
1974-11-08,34.71
1974-11-09,34.71
1974-11-10,34.71
1974-11-11,34.71
1974-11-12,34.71
1974-11-13,34.71
1974-11-14,34.71
1974-11-15,34.71
1974-11-16,34.71
1974-11-17,34.71
1974-11-18,34.71
1974-11-19,34.79
1974-11-20,34.79
1974-11-21,34.79
1974-11-22,34.79
1974-11-23,34.79
1974-11-24,34.79
1974-11-25,34.79
1974-11-26,34.38
1974-11-27,34.38
1974-11-28,34.38
1974-11-29,34.38
1974-11-30,34.38
1974-12-01,30.5
1974-12-02,30.5
1974-12-03,32.47
1974-12-04,32.47
1974-12-05,32.47
1974-12-06,32.47
1974-12-07,32.47
1974-12-08,32.47
1974-12-09,32.47
1974-12-10,32.47
1974-12-11,32.47
1974-12-12,32.47
1974-12-13,32.01
1974-12-14,32.01
1974-12-15,32.01
1974-12-16,32.01
1974-12-17,65.84
1974-12-18,65.84
1974-12-19,65.84
1974-12-20,65.84
1974-12-21,65.84
1974-12-22,65.84
1974-12-23,65.84
1974-12-24,65.84
1974-12-25,65.84
1974-12-26,65.84
1974-12-27,65.84
1974-12-28,65.84
1974-12-29,65.84
1974-12-30,65.84
1974-12-31,65.84
1975-01-01,29.41
1975-01-02,29.41
1975-01-03,29.41
1975-01-04,29.41
1975-01-05,29.41
1975-01-06,29.41
1975-01-07,34.28
1975-01-08,34.28
1975-01-09,34.28
1975-01-10,34.28
1975-01-11,34.28
1975-01-12,34.28
1975-01-13,34.28
1975-01-14,34.64
1975-01-15,34.64
1975-01-16,34.64
1975-01-17,34.64
1975-01-18,34.64
1975-01-19,34.64
1975-01-20,34.64
1975-01-21,30.25
1975-01-22,30.25
1975-01-23,30.25
1975-01-24,30.25
1975-01-25,30.25
1975-01-26,30.25
1975-01-27,30.25
1975-01-28,30.25
1975-01-29,30.25
1975-01-30,32.01
1975-01-31,32.01
1975-02-01,30.75
1975-02-02,30.75
1975-02-03,30.75
1975-02-04,32.41
1975-02-05,32.41
1975-02-06,32.41
1975-02-07,32.41
1975-02-08,32.41
1975-02-09,32.41
1975-02-10,32.41
1975-02-11,31.45
1975-02-12,31.45
1975-02-13,31.45
1975-02-14,31.45
1975-02-15,31.45
1975-02-16,31.45
1975-02-17,31.45
1975-02-18,31.45
1975-02-19,31.17
1975-02-20,31.17
1975-02-21,31.17
1975-02-22,31.17
1975-02-23,31.17
1975-02-24,31.17
1975-02-25,31.51
1975-02-26,31.51
1975-02-27,31.51
1975-02-28,31.51
1975-03-01,36.25
1975-03-02,36.25
1975-03-03,36.25
1975-03-04,36.25
1975-03-05,36.25
1975-03-06,36.25
1975-03-07,36.25
1975-03-08,36.25
1975-03-09,36.25
1975-03-10,36.25
1975-03-11,36.01
1975-03-12,36.01
1975-03-13,36.01
1975-03-14,36.01
1975-03-15,36.01
1975-03-16,36.01
1975-03-17,36.01
1975-03-18,39.18
1975-03-19,39.18
1975-03-20,39.18
1975-03-21,39.18
1975-03-22,39.18
1975-03-23,39.18
1975-03-24,39.18
1975-03-25,37.45
1975-03-26,37.45
1975-03-27,37.45
1975-03-28,37.45
1975-03-29,37.45
1975-03-30,37.45
1975-03-31,37.45
1975-04-01,36.16
1975-04-02,36.16
1975-04-03,36.16
1975-04-04,36.16
1975-04-05,36.16
1975-04-06,36.16
1975-04-07,36.16
1975-04-08,38.74
1975-04-09,38.74
1975-04-10,38.74
1975-04-11,38.74
1975-04-12,38.74
1975-04-13,38.74
1975-04-14,58.86
1975-04-15,58.86
1975-04-16,58.86
1975-04-17,58.86
1975-04-18,61.26
1975-04-19,61.26
1975-04-20,61.26
1975-04-21,61.26
1975-04-22,91.25
1975-04-23,91.25
1975-04-24,91.25
1975-04-25,106.76
1975-04-26,106.76
1975-04-27,106.76
1975-04-28,106.76
1975-04-29,71.95
1975-04-30,71.95
1975-05-01,71.95
1975-05-02,71.95
1975-05-03,71.95
1975-05-04,71.95
1975-05-05,71.95
1975-05-06,108.09
1975-05-07,108.09
1975-05-08,108.09
1975-05-09,108.09
1975-05-10,108.09
1975-05-11,247.04
1975-05-12,247.04
1975-05-13,306.53
1975-05-14,306.53
1975-05-15,459.29
1975-05-16,613.9
1975-05-17,613.9
1975-05-18,613.9
1975-05-19,657.68
1975-05-20,657.68
1975-05-21,405.85
1975-05-22,405.85
1975-05-23,239.98
1975-05-24,165.36
1975-05-25,89.74
1975-05-26,270.73
1975-05-27,307.03
1975-05-28,332.75
1975-05-29,425.76
1975-05-30,425.76
1975-05-31,326.19
1975-06-01,529.37
1975-06-02,508.44
1975-06-03,508.44
1975-06-04,562.64
1975-06-05,542.98
1975-06-06,558.1
1975-06-07,1012.86
1975-06-08,769.35
1975-06-09,490.55
1975-06-10,505.67
1975-06-11,167.38
1975-06-12,259.14
1975-06-13,265.69
1975-06-14,265.69
1975-06-15,382.66
1975-06-16,343.84
1975-06-17,349.89
1975-06-18,326.7
1975-06-19,271.24
1975-06-20,271.24
1975-06-21,271.24
1975-06-22,271.24
1975-06-23,271.24
1975-06-24,291.4
1975-06-25,282.08
1975-06-26,282.08
1975-06-27,282.08
1975-06-28,282.08
1975-06-29,282.08
1975-06-30,282.08
1975-07-01,195.61
1975-07-02,195.61
1975-07-03,195.61
1975-07-04,195.61
1975-07-05,195.61
1975-07-06,195.61
1975-07-07,195.61
1975-07-08,147.21
1975-07-09,147.21
1975-07-10,147.21
1975-07-11,147.21
1975-07-12,147.21
1975-07-13,147.21
1975-07-14,147.21
1975-07-15,80.16
1975-07-16,80.16
1975-07-17,80.16
1975-07-18,80.16
1975-07-19,80.16
1975-07-20,80.16
1975-07-21,80.16
1975-07-22,79.66
1975-07-23,79.66
1975-07-24,55.65
1975-07-25,55.65
1975-07-26,55.65
1975-07-27,55.65
1975-07-28,55.65
1975-07-29,55.65
1975-07-30,55.65
1975-07-31,55.65
1975-08-01,54.83
1975-08-02,54.83
1975-08-03,54.83
1975-08-04,54.83
1975-08-05,66.55
1975-08-06,66.55
1975-08-07,66.55
1975-08-08,66.55
1975-08-09,66.55
1975-08-10,66.55
1975-08-11,66.55
1975-08-12,59.99
1975-08-13,59.99
1975-08-14,59.99
1975-08-15,59.99
1975-08-16,59.99
1975-08-17,59.99
1975-08-18,59.99
1975-08-19,59.99
1975-08-20,56.97
1975-08-21,56.97
1975-08-22,57.35
1975-08-23,57.35
1975-08-24,57.35
1975-08-25,57.35
1975-08-26,61.38
1975-08-27,61.38
1975-08-28,61.38
1975-08-29,61.38
1975-08-30,53.44
1975-08-31,53.44
1975-09-01,54.58
1975-09-02,54.58
1975-09-03,54.58
1975-09-04,54.58
1975-09-05,46.63
1975-09-06,46.63
1975-09-07,46.63
1975-09-08,46.63
1975-09-09,53.82
1975-09-10,53.82
1975-09-11,53.82
1975-09-12,53.82
1975-09-13,54.62
1975-09-14,54.62
1975-09-15,54.62
1975-09-16,52.94
1975-09-17,52.94
1975-09-18,52.94
1975-09-19,52.94
1975-09-20,46.18
1975-09-21,46.18
1975-09-22,46.18
1975-09-23,46.18
1975-09-24,46.18
1975-09-25,46.18
1975-09-26,46.18
1975-09-27,46.18
1975-09-28,46.18
1975-09-29,46.18
1975-09-30,27.22
1975-10-01,64.87
1975-10-02,64.87
1975-10-03,64.87
1975-10-04,64.87
1975-10-05,64.87
1975-10-06,64.87
1975-10-07,60.5
1975-10-08,60.5
1975-10-09,60.5
1975-10-10,60.5
1975-10-11,60.5
1975-10-12,60.5
1975-10-13,60.5
1975-10-14,60.5
1975-10-15,55.91
1975-10-16,55.91
1975-10-17,55.91
1975-10-18,55.91
1975-10-19,55.91
1975-10-20,55.91
1975-10-21,55.91
1975-10-22,55.91
1975-10-23,55.91
1975-10-24,35.29
1975-10-25,47.05
1975-10-26,47.05
1975-10-27,47.05
1975-10-28,61.51
1975-10-29,54.28
1975-10-30,54.28
1975-10-31,54.28
1975-11-01,53.95
1975-11-02,53.95
1975-11-03,53.95
1975-11-04,41.34
1975-11-05,41.34
1975-11-06,41.34
1975-11-07,41.34
1975-11-08,41.34
1975-11-09,41.34
1975-11-10,41.34
1975-11-11,41.34
1975-11-12,38.82
1975-11-13,38.82
1975-11-14,38.82
1975-11-15,38.82
1975-11-16,38.82
1975-11-17,38.82
1975-11-18,33.78
1975-11-19,33.78
1975-11-20,33.78
1975-11-21,33.78
1975-11-22,33.78
1975-11-23,33.78
1975-11-24,33.78
1975-11-25,33.27
1975-11-26,33.27
1975-11-27,33.27
1975-11-28,33.27
1975-11-29,33.27
1975-11-30,33.27
1975-12-01,33.78
1975-12-02,33.78
1975-12-03,33.78
1975-12-04,33.78
1975-12-05,33.78
1975-12-06,33.78
1975-12-07,33.78
1975-12-08,33.78
1975-12-09,34.11
1975-12-10,34.11
1975-12-11,34.11
1975-12-12,34.11
1975-12-13,34.11
1975-12-14,34.11
1975-12-15,34.11
1975-12-16,34.11
1975-12-17,34.11
1975-12-18,30.55
1975-12-19,30.55
1975-12-20,30.55
1975-12-21,30.55
1975-12-22,30.55
1975-12-23,30.97
1975-12-24,30.97
1975-12-25,30.97
1975-12-26,30.97
1975-12-27,30.97
1975-12-28,30.97
1975-12-29,30.97
1975-12-30,32.27
1975-12-31,32.27
1976-01-01,31.26
1976-01-02,31.26
1976-01-03,31.26
1976-01-04,31.26
1976-01-05,31.26
1976-01-06,31.26
1976-01-07,31.26
1976-01-08,31.05
1976-01-09,31.05
1976-01-10,31.05
1976-01-11,31.05
1976-01-12,31.05
1976-01-13,31.05
1976-01-14,31.05
1976-01-15,31.05
1976-01-16,31.05
1976-01-17,31.05
1976-01-18,31.05
1976-01-19,31.05
1976-01-20,33.12
1976-01-21,33.12
1976-01-22,33.12
1976-01-23,33.12
1976-01-24,33.12
1976-01-25,33.12
1976-01-26,33.12
1976-01-27,33.12
1976-01-28,33.12
1976-01-29,33.12
1976-01-30,33.78
1976-01-31,33.78
1976-02-01,25.71
1976-02-02,25.71
1976-02-03,25.71
1976-02-04,25.71
1976-02-05,25.71
1976-02-06,25.71
1976-02-07,25.71
1976-02-08,25.71
1976-02-09,25.71
1976-02-10,27.92
1976-02-11,27.92
1976-02-12,27.92
1976-02-13,27.92
1976-02-14,27.92
1976-02-15,27.92
1976-02-16,27.92
1976-02-17,27.92
1976-02-18,28.49
1976-02-19,28.49
1976-02-20,28.49
1976-02-21,28.49
1976-02-22,28.49
1976-02-23,28.49
1976-02-24,39.07
1976-02-25,39.07
1976-02-26,39.07
1976-02-27,39.07
1976-02-28,39.07
1976-02-29,39.07
1976-03-01,39.32
1976-03-02,32.99
1976-03-03,32.99
1976-03-04,32.99
1976-03-05,32.99
1976-03-06,32.99
1976-03-07,32.99
1976-03-08,32.99
1976-03-09,44.8
1976-03-10,44.8
1976-03-11,44.8
1976-03-12,44.8
1976-03-13,44.8
1976-03-14,44.8
1976-03-15,44.8
1976-03-16,40.33
1976-03-17,40.33
1976-03-18,40.33
1976-03-19,40.33
1976-03-20,40.33
1976-03-21,40.33
1976-03-22,40.33
1976-03-23,54.09
1976-03-24,54.09
1976-03-25,54.09
1976-03-26,54.09
1976-03-27,54.09
1976-03-28,54.09
1976-03-29,54.09
1976-03-30,55.96
1976-03-31,55.96
1976-04-01,33.78
1976-04-02,33.78
1976-04-03,33.78
1976-04-04,33.78
1976-04-05,33.78
1976-04-06,89.99
1976-04-07,89.99
1976-04-08,80.67
1976-04-09,80.67
1976-04-10,126.67
1976-04-11,126.67
1976-04-12,126.67
1976-04-13,126.67
1976-04-14,116.29
1976-04-15,116.29
1976-04-16,116.29
1976-04-17,116.29
1976-04-18,116.29
1976-04-19,116.29
1976-04-20,161.04
1976-04-21,161.04
1976-04-22,161.04
1976-04-23,161.04
1976-04-24,161.04
1976-04-25,161.04
1976-04-26,161.04
1976-04-27,175.07
1976-04-28,175.07
1976-04-29,175.07
1976-04-30,175.07
1976-05-01,177.97
1976-05-02,177.97
1976-05-03,177.97
1976-05-04,354.42
1976-05-05,354.42
1976-05-06,354.42
1976-05-07,354.42
1976-05-08,354.42
1976-05-09,354.42
1976-05-10,354.42
1976-05-11,464.33
1976-05-12,407.36
1976-05-13,407.36
1976-05-14,498.28
1976-05-15,498.28
1976-05-16,498.28
1976-05-17,642.3
1976-05-18,337.28
1976-05-19,337.28
1976-05-20,231.41
1976-05-21,86.21
1976-05-22,86.21
1976-05-23,86.21
1976-05-24,86.21
1976-05-25,219.81
1976-05-26,219.81
1976-05-27,219.81
1976-05-28,219.81
1976-05-29,219.81
1976-05-30,219.81
1976-05-31,219.81
1976-06-01,143.94
1976-06-02,143.94
1976-06-03,133.1
1976-06-04,133.1
1976-06-05,133.1
1976-06-06,133.1
1976-06-07,133.1
1976-06-08,133.1
1976-06-09,88.31
1976-06-10,88.31
1976-06-11,88.31
1976-06-12,88.31
1976-06-13,88.31
1976-06-14,88.31
1976-06-15,79.91
1976-06-16,79.91
1976-06-17,78.65
1976-06-18,78.65
1976-06-19,78.65
1976-06-20,78.65
1976-06-21,78.65
1976-06-22,78.65
1976-06-23,78.65
1976-06-24,64.43
1976-06-25,64.43
1976-06-26,64.43
1976-06-27,64.43
1976-06-28,64.43
1976-06-29,62.52
1976-06-30,62.52
1976-07-01,52.18
1976-07-02,52.18
1976-07-03,41.49
1976-07-04,41.49
1976-07-05,41.49
1976-07-06,41.49
1976-07-07,41.49
1976-07-08,41.49
1976-07-09,41.49
1976-07-10,33.19
1976-07-11,33.19
1976-07-12,33.19
1976-07-13,33.19
1976-07-14,33.19
1976-07-15,33.19
1976-07-16,55.71
1976-07-17,55.71
1976-07-18,55.71
1976-07-19,55.71
1976-07-20,55.71
1976-07-21,55.71
1976-07-22,44.57
1976-07-23,44.57
1976-07-24,44.57
1976-07-25,44.57
1976-07-26,44.57
1976-07-27,67.94
1976-07-28,67.94
1976-07-29,67.94
1976-07-30,67.94
1976-07-31,38.82
1976-08-01,49.24
1976-08-02,49.24
1976-08-03,49.24
1976-08-04,49.24
1976-08-05,49.24
1976-08-06,49.24
1976-08-07,47.39
1976-08-08,47.39
1976-08-09,47.39
1976-08-10,47.39
1976-08-11,47.39
1976-08-12,45.37
1976-08-13,45.37
1976-08-14,45.37
1976-08-15,45.37
1976-08-16,45.37
1976-08-17,60.21
1976-08-18,60.21
1976-08-19,60.21
1976-08-20,60.21
1976-08-21,60.21
1976-08-22,60.21
1976-08-23,60.21
1976-08-24,60.5
1976-08-25,60.5
1976-08-26,60.5
1976-08-27,60.5
1976-08-28,38.57
1976-08-29,38.57
1976-08-30,38.57
1976-08-31,38.57
1976-09-01,42.46
1976-09-02,42.46
1976-09-03,42.46
1976-09-04,42.46
1976-09-05,42.46
1976-09-06,42.46
1976-09-07,42.46
1976-09-08,42.46
1976-09-09,42.46
1976-09-10,34.66
1976-09-11,34.66
1976-09-12,34.66
1976-09-13,34.66
1976-09-14,34.66
1976-09-15,34.66
1976-09-16,34.66
1976-09-17,34.66
1976-09-18,19.54
1976-09-19,19.54
1976-09-20,19.54
1976-09-21,19.54
1976-09-22,34.28
1976-09-23,33.27
1976-09-24,7.33
1976-09-25,7.33
1976-09-26,7.33
1976-09-27,7.33
1976-09-28,7.33
1976-09-29,7.33
1976-09-30,7.33
1976-10-01,7.33
1976-10-02,7.33
1976-10-03,7.33
1976-10-04,7.33
1976-10-05,34.62
1976-10-06,34.62
1976-10-07,34.62
1976-10-08,34.62
1976-10-09,34.62
1976-10-10,34.62
1976-10-11,34.62
1976-10-12,34.62
1976-10-13,34.62
1976-10-14,34.62
1976-10-15,34.62
1976-10-16,34.62
1976-10-17,34.62
1976-10-18,34.62
1976-10-19,34.62
1976-10-20,34.62
1976-10-21,34.62
1976-10-22,34.62
1976-10-23,29.19
1976-10-24,29.19
1976-10-25,29.19
1976-10-26,29.19
1976-10-27,29.19
1976-10-28,29.19
1976-10-29,29.19
1976-10-30,29.19
1976-10-31,29.19
1976-11-01,28.23
1976-11-02,27.48
1976-11-03,27.48
1976-11-04,27.48
1976-11-05,27.48
1976-11-06,0.67
1976-11-07,0.67
1976-11-08,0.67
1976-11-09,48.04
1976-11-10,48.04
1976-11-11,48.04
1976-11-12,48.04
1976-11-13,48.04
1976-11-14,48.04
1976-11-15,48.04
1976-11-16,50.25
1976-11-17,50.25
1976-11-18,50.25
1976-11-19,32.77
1976-11-20,43.69
1976-11-21,43.69
1976-11-22,43.69
1976-11-23,29.96
1976-11-24,29.96
1976-11-25,29.96
1976-11-26,29.96
1976-11-27,29.96
1976-11-28,29.96
1976-11-29,29.96
1976-11-30,28.74
1976-12-01,22.86
1976-12-02,22.86
1976-12-03,22.86
1976-12-04,22.86
1976-12-05,22.86
1976-12-06,22.86
1976-12-07,19.54
1976-12-08,19.54
1976-12-09,19.54
1976-12-10,19.54
1976-12-11,50.25
1976-12-12,50.25
1976-12-13,50.25
1976-12-14,33.35
1976-12-15,33.35
1976-12-16,33.35
1976-12-17,33.35
1976-12-18,33.35
1976-12-19,33.35
1976-12-20,33.35
1976-12-21,32.19
1976-12-22,32.19
1976-12-23,32.19
1976-12-24,32.19
1976-12-25,32.19
1976-12-26,32.19
1976-12-27,32.19
1976-12-28,31.89
1976-12-29,31.89
1976-12-30,31.89
1976-12-31,31.89
1977-01-01,64.2
1977-01-02,64.2
1977-01-03,64.2
1977-01-04,31.15
1977-01-05,31.15
1977-01-06,31.15
1977-01-07,31.15
1977-01-08,31.15
1977-01-09,31.15
1977-01-10,31.15
1977-01-11,31.15
1977-01-12,31.15
1977-01-13,31.15
1977-01-14,31.15
1977-01-15,31.15
1977-01-16,31.15
1977-01-17,31.15
1977-01-18,39.07
1977-01-19,39.07
1977-01-20,39.07
1977-01-21,39.07
1977-01-22,32.87
1977-01-23,32.87
1977-01-24,32.87
1977-01-25,32.87
1977-01-26,32.87
1977-01-27,32.87
1977-01-28,32.87
1977-01-29,32.87
1977-01-30,32.87
1977-01-31,32.87
1977-02-01,36.08
1977-02-02,36.08
1977-02-03,36.08
1977-02-04,36.08
1977-02-05,36.08
1977-02-06,36.08
1977-02-07,36.08
1977-02-08,36.08
1977-02-09,36.08
1977-02-10,36.08
1977-02-11,36.08
1977-02-12,36.08
1977-02-13,36.08
1977-02-14,36.08
1977-02-15,31.19
1977-02-16,31.19
1977-02-17,31.19
1977-02-18,31.19
1977-02-19,31.19
1977-02-20,31.19
1977-02-21,31.19
1977-02-22,33.06
1977-02-23,33.06
1977-02-24,33.06
1977-02-25,33.06
1977-02-26,33.06
1977-02-27,33.06
1977-02-28,33.06
1977-03-01,43.93
1977-03-02,43.93
1977-03-03,43.93
1977-03-04,43.93
1977-03-05,43.93
1977-03-06,43.93
1977-03-07,43.93
1977-03-08,39.4
1977-03-09,39.4
1977-03-10,39.4
1977-03-11,39.4
1977-03-12,39.4
1977-03-13,39.4
1977-03-14,39.4
1977-03-15,15.12
1977-03-16,15.12
1977-03-17,15.12
1977-03-18,15.12
1977-03-19,15.12
1977-03-20,15.12
1977-03-21,15.12
1977-03-22,30.83
1977-03-23,30.83
1977-03-24,30.83
1977-03-25,30.83
1977-03-26,30.83
1977-03-27,30.83
1977-03-28,30.83
1977-03-29,31.59
1977-03-30,31.59
1977-03-31,31.59
1977-04-01,30.48
1977-04-02,30.48
1977-04-03,30.48
1977-04-04,30.48
1977-04-05,30.48
1977-04-06,30.48
1977-04-07,30.48
1977-04-08,30.48
1977-04-09,30.48
1977-04-10,30.48
1977-04-11,30.48
1977-04-12,35.65
1977-04-13,35.65
1977-04-14,35.65
1977-04-15,35.65
1977-04-16,35.65
1977-04-17,35.65
1977-04-18,35.65
1977-04-19,29.82
1977-04-20,29.82
1977-04-21,29.82
1977-04-22,29.82
1977-04-23,29.82
1977-04-24,29.82
1977-04-25,29.82
1977-04-26,36.8
1977-04-27,36.8
1977-04-28,36.8
1977-04-29,36.8
1977-04-30,36.8
1977-05-01,30.98
1977-05-02,30.98
1977-05-03,30.98
1977-05-04,30.98
1977-05-05,30.98
1977-05-06,30.98
1977-05-07,30.98
1977-05-08,30.98
1977-05-09,30.98
1977-05-10,29.6
1977-05-11,29.6
1977-05-12,29.6
1977-05-13,29.6
1977-05-14,29.6
1977-05-15,29.6
1977-05-16,29.6
1977-05-17,32.7
1977-05-18,32.7
1977-05-19,32.7
1977-05-20,32.7
1977-05-21,32.7
1977-05-22,32.7
1977-05-23,32.7
1977-05-24,52.12
1977-05-25,52.12
1977-05-26,52.12
1977-05-27,52.12
1977-05-28,52.12
1977-05-29,52.12
1977-05-30,52.12
1977-05-31,52.12
1977-06-01,19.82
1977-06-02,19.82
1977-06-03,19.82
1977-06-04,19.82
1977-06-05,19.82
1977-06-06,19.82
1977-06-07,19.82
1977-06-08,19.82
1977-06-09,19.82
1977-06-10,19.82
1977-06-11,19.82
1977-06-12,19.82
1977-06-13,19.82
1977-06-14,12.17
1977-06-15,12.17
1977-06-16,12.17
1977-06-17,12.17
1977-06-18,12.17
1977-06-19,12.17
1977-06-20,12.17
1977-06-21,19.95
1977-06-22,19.95
1977-06-23,19.95
1977-06-24,19.95
1977-06-25,19.95
1977-06-26,19.95
1977-06-27,19.95
1977-06-28,23.02
1977-06-29,23.02
1977-06-30,23.02
1977-07-01,-0.25
1977-07-02,-0.25
1977-07-03,-0.25
1977-07-04,-0.25
1977-07-05,35.42
1977-07-06,35.42
1977-07-07,35.42
1977-07-08,35.42
1977-07-09,29.95
1977-07-10,29.95
1977-07-11,29.95
1977-07-12,29.95
1977-07-13,29.95
1977-07-14,14.22
1977-07-15,14.22
1977-07-16,14.22
1977-07-17,14.22
1977-07-18,14.22
1977-07-19,30.5
1977-07-20,30.5
1977-07-21,30.5
1977-07-22,30.5
1977-07-23,27.39
1977-07-24,27.39
1977-07-25,27.39
1977-07-26,27.39
1977-07-27,27.39
1977-07-28,27.39
1977-07-29,3.5300000000000002
1977-07-30,3.5300000000000002
1977-07-31,3.5300000000000002
1977-08-01,20.27
1977-08-02,20.27
1977-08-03,20.27
1977-08-04,20.27
1977-08-05,20.27
1977-08-06,0.0
1977-08-07,0.0
1977-08-08,0.0
1977-08-09,22.18
1977-08-10,22.18
1977-08-11,22.18
1977-08-12,12.24
1977-08-13,12.24
1977-08-14,12.24
1977-08-15,12.24
1977-08-16,12.24
1977-08-17,12.24
1977-08-18,12.24
1977-08-19,30.88
1977-08-20,30.88
1977-08-21,30.88
1977-08-22,30.88
1977-08-23,29.24
1977-08-24,29.24
1977-08-25,29.24
1977-08-26,29.24
1977-08-27,15.29
1977-08-28,15.29
1977-08-29,15.29
1977-08-30,5.55
1977-08-31,5.55
1977-09-01,31.76
1977-09-02,31.76
1977-09-03,26.47
1977-09-04,26.47
1977-09-05,16.13
1977-09-06,16.13
1977-09-07,16.13
1977-09-08,16.13
1977-09-09,16.13
1977-09-10,15.12
1977-09-11,15.12
1977-09-12,15.12
1977-09-13,16.13
1977-09-14,16.13
1977-09-15,16.13
1977-09-16,16.13
1977-09-17,15.95
1977-09-18,15.95
1977-09-19,15.95
1977-09-20,15.95
1977-09-21,15.95
1977-09-22,15.95
1977-09-23,15.95
1977-09-24,15.95
1977-09-25,15.95
1977-09-26,15.95
1977-09-27,15.95
1977-09-28,15.95
1977-09-29,15.95
1977-09-30,15.95
1977-10-01,15.23
1977-10-02,15.23
1977-10-03,15.23
1977-10-04,15.23
1977-10-05,15.23
1977-10-06,15.23
1977-10-07,15.23
1977-10-08,15.23
1977-10-09,15.23
1977-10-10,15.23
1977-10-11,15.23
1977-10-12,15.23
1977-10-13,15.23
1977-10-14,15.23
1977-10-15,26.55
1977-10-16,26.55
1977-10-17,26.55
1977-10-18,24.6
1977-10-19,24.6
1977-10-20,24.6
1977-10-21,24.6
1977-10-22,24.6
1977-10-23,24.6
1977-10-24,24.6
1977-10-25,24.6
1977-10-26,24.6
1977-10-27,24.6
1977-10-28,22.31
1977-10-29,22.31
1977-10-30,22.31
1977-10-31,22.31
1977-11-01,22.69
1977-11-02,22.69
1977-11-03,22.69
1977-11-04,22.69
1977-11-05,22.69
1977-11-06,22.69
1977-11-07,22.69
1977-11-08,25.21
1977-11-09,25.21
1977-11-10,25.21
1977-11-11,25.21
1977-11-12,25.21
1977-11-13,25.21
1977-11-14,25.21
1977-11-15,34.71
1977-11-16,34.71
1977-11-17,34.71
1977-11-18,34.71
1977-11-19,34.71
1977-11-20,34.71
1977-11-21,34.71
1977-11-22,15.34
1977-11-23,15.34
1977-11-24,15.34
1977-11-25,15.34
1977-11-26,15.34
1977-11-27,15.34
1977-11-28,15.34
1977-11-29,15.88
1977-11-30,15.88
1977-12-01,25.81
1977-12-02,25.81
1977-12-03,25.81
1977-12-04,25.81
1977-12-05,25.81
1977-12-06,23.48
1977-12-07,23.48
1977-12-08,23.48
1977-12-09,23.48
1977-12-10,23.48
1977-12-11,23.48
1977-12-12,23.48
1977-12-13,24.92
1977-12-14,24.92
1977-12-15,24.92
1977-12-16,24.92
1977-12-17,24.92
1977-12-18,24.92
1977-12-19,24.92
1977-12-20,22.69
1977-12-21,22.69
1977-12-22,22.69
1977-12-23,22.69
1977-12-24,22.69
1977-12-25,22.69
1977-12-26,22.69
1977-12-27,22.69
1977-12-28,30.63
1977-12-29,30.63
1977-12-30,30.63
1977-12-31,30.63
1978-01-01,20.0
1978-01-02,20.0
1978-01-03,20.0
1978-01-04,20.0
1978-01-05,20.0
1978-01-06,20.0
1978-01-07,20.0
1978-01-08,20.0
1978-01-09,20.0
1978-01-10,26.53
1978-01-11,26.53
1978-01-12,26.53
1978-01-13,26.53
1978-01-14,26.53
1978-01-15,26.53
1978-01-16,26.53
1978-01-17,26.53
1978-01-18,16.78
1978-01-19,16.78
1978-01-20,16.78
1978-01-21,16.78
1978-01-22,16.78
1978-01-23,16.78
1978-01-24,16.78
1978-01-25,23.77
1978-01-26,23.77
1978-01-27,23.77
1978-01-28,23.77
1978-01-29,23.77
1978-01-30,23.77
1978-01-31,23.77
1978-02-01,25.21
1978-02-02,25.21
1978-02-03,25.21
1978-02-04,25.21
1978-02-05,25.21
1978-02-06,25.21
1978-02-07,27.73
1978-02-08,27.73
1978-02-09,27.73
1978-02-10,27.73
1978-02-11,27.73
1978-02-12,27.73
1978-02-13,27.73
1978-02-14,27.73
1978-02-15,23.98
1978-02-16,23.98
1978-02-17,23.98
1978-02-18,23.98
1978-02-19,23.98
1978-02-20,23.98
1978-02-21,23.98
1978-02-22,20.67
1978-02-23,20.67
1978-02-24,20.67
1978-02-25,20.67
1978-02-26,20.67
1978-02-27,20.67
1978-02-28,22.69
1978-03-01,26.38
1978-03-02,26.38
1978-03-03,26.38
1978-03-04,26.38
1978-03-05,26.38
1978-03-06,26.38
1978-03-07,21.68
1978-03-08,21.68
1978-03-09,21.68
1978-03-10,21.68
1978-03-11,21.68
1978-03-12,21.68
1978-03-13,21.68
1978-03-14,26.0
1978-03-15,26.0
1978-03-16,26.0
1978-03-17,26.0
1978-03-18,26.0
1978-03-19,26.0
1978-03-20,26.0
1978-03-21,40.84
1978-03-22,28.57
1978-03-23,28.57
1978-03-24,28.57
1978-03-25,28.57
1978-03-26,28.57
1978-03-27,28.57
1978-03-28,128.18
1978-03-29,128.18
1978-03-30,128.18
1978-03-31,128.18
1978-04-01,85.71
1978-04-02,85.71
1978-04-03,85.71
1978-04-04,118.35
1978-04-05,118.35
1978-04-06,118.35
1978-04-07,118.35
1978-04-08,130.24
1978-04-09,130.24
1978-04-10,130.24
1978-04-11,149.48
1978-04-12,149.48
1978-04-13,131.08
1978-04-14,131.08
1978-04-15,151.58
1978-04-16,151.58
1978-04-17,151.58
1978-04-18,130.58
1978-04-19,130.58
1978-04-20,123.27
1978-04-21,123.27
1978-04-22,117.64
1978-04-23,117.64
1978-04-24,117.64
1978-04-25,91.25
1978-04-26,91.25
1978-04-27,201.66
1978-04-28,201.66
1978-04-29,219.81
1978-04-30,219.81
1978-05-01,224.86
1978-05-02,124.91
1978-05-03,124.91
1978-05-04,124.91
1978-05-05,124.91
1978-05-06,72.9
1978-05-07,72.9
1978-05-08,72.9
1978-05-09,72.9
1978-05-10,72.9
1978-05-11,302.5
1978-05-12,302.5
1978-05-13,302.5
1978-05-14,302.5
1978-05-15,302.5
1978-05-16,302.5
1978-05-17,302.5
1978-05-18,365.72
1978-05-19,365.72
1978-05-20,365.72
1978-05-21,365.72
1978-05-22,365.72
1978-05-23,357.95
1978-05-24,357.95
1978-05-25,357.95
1978-05-26,357.95
1978-05-27,428.84
1978-05-28,428.84
1978-05-29,428.84
1978-05-30,428.84
1978-05-31,428.84
1978-06-01,298.87
1978-06-02,298.87
1978-06-03,298.87
1978-06-04,298.87
1978-06-05,298.87
1978-06-06,353.92
1978-06-07,353.92
1978-06-08,353.92
1978-06-09,353.92
1978-06-10,270.4
1978-06-11,270.4
1978-06-12,270.4
1978-06-13,174.27
1978-06-14,174.27
1978-06-15,174.27
1978-06-16,168.39
1978-06-17,168.39
1978-06-18,168.39
1978-06-19,168.39
1978-06-20,152.26
1978-06-21,152.26
1978-06-22,152.26
1978-06-23,133.48
1978-06-24,133.48
1978-06-25,133.48
1978-06-26,133.48
1978-06-27,90.75
1978-06-28,90.75
1978-06-29,90.75
1978-06-30,161.33
1978-07-01,77.3
1978-07-02,77.3
1978-07-03,77.3
1978-07-04,70.58
1978-07-05,70.58
1978-07-06,70.58
1978-07-07,54.58
1978-07-08,54.58
1978-07-09,54.58
1978-07-10,54.58
1978-07-11,33.02
1978-07-12,33.02
1978-07-13,33.02
1978-07-14,33.02
1978-07-15,52.43
1978-07-16,52.43
1978-07-17,52.43
1978-07-18,44.2
1978-07-19,44.2
1978-07-20,44.2
1978-07-21,60.63
1978-07-22,60.63
1978-07-23,60.63
1978-07-24,60.63
1978-07-25,30.25
1978-07-26,30.25
1978-07-27,30.25
1978-07-28,40.08
1978-07-29,40.08
1978-07-30,40.08
1978-07-31,40.08
1978-08-01,38.82
1978-08-02,38.82
1978-08-03,38.82
1978-08-04,40.71
1978-08-05,40.71
1978-08-06,40.71
1978-08-07,40.71
1978-08-08,35.12
1978-08-09,35.12
1978-08-10,35.12
1978-08-11,39.07